Location: ShareBrained
(45.5589°N, 122.6491°W)
Time: 01:19:31
(UTC-08:00)

NOAA 19 - Pass Details

Date: 26 September 2023
Orbit: 839 x 860 km, 99.1° (Epoch: 08 December)

Event Time Altitude Azimuth Distance (km) Brightness Sun altitude
Exits shadow 21:07:24 46° 142° (SE) 1,129 5.4 -22.6°
Maximum altitude 21:09:02 73° 72° (ENE) 893 5.1 -22.8°
Drops below altitude 10° 21:14:33 10° 349° (N) 2,494 8.1 -23.7°
Sets 21:16:57 0° 348° (NNW) 3,438 8.9 -24.1°
